Year,Month,Day,Hour,Minute,Value (Times are PST for temperature in C)
2015,10,15,00,00,13.30
2015,10,15,00,01,13.30
2015,10,15,00,02,13.30
2015,10,15,00,03,13.30
2015,10,15,00,04,13.30
2015,10,15,00,05,13.30
2015,10,15,00,06,13.30
2015,10,15,00,07,13.40
2015,10,15,00,08,13.40
2015,10,15,00,09,13.40
2015,10,15,00,10,13.40
2015,10,15,00,11,13.30
2015,10,15,00,12,13.30
2015,10,15,00,13,13.30
2015,10,15,00,14,13.30
2015,10,15,00,15,13.30
2015,10,15,00,16,13.30
2015,10,15,00,17,13.20
2015,10,15,00,18,13.20
2015,10,15,00,19,13.10
2015,10,15,00,20,13.10
2015,10,15,00,21,13.20
2015,10,15,00,22,13.20
2015,10,15,00,23,13.20
2015,10,15,00,24,13.20
2015,10,15,00,25,13.20
2015,10,15,00,26,13.20
2015,10,15,00,27,13.20
2015,10,15,00,28,13.20
2015,10,15,00,29,13.20
2015,10,15,00,30,13.20
2015,10,15,00,31,13.10
2015,10,15,00,32,13.10
2015,10,15,00,33,13.00
2015,10,15,00,34,13.00
2015,10,15,00,35,13.00
2015,10,15,00,36,13.00
2015,10,15,00,37,12.90
2015,10,15,00,38,12.90
2015,10,15,00,39,12.90
2015,10,15,00,40,12.90
2015,10,15,00,41,12.90
2015,10,15,00,42,12.90
2015,10,15,00,43,12.90
2015,10,15,00,44,12.90
2015,10,15,00,45,12.90
2015,10,15,00,46,12.80
2015,10,15,00,47,12.80
2015,10,15,00,48,12.70
2015,10,15,00,49,12.60
2015,10,15,00,50,12.50
2015,10,15,00,51,12.50
2015,10,15,00,52,12.40
2015,10,15,00,53,12.30
2015,10,15,00,54,12.30
2015,10,15,00,55,12.20
2015,10,15,00,56,12.20
2015,10,15,00,57,12.10
2015,10,15,00,58,12.00
2015,10,15,00,59,12.00
2015,10,15,01,00,11.90
2015,10,15,01,01,11.90
2015,10,15,01,02,11.80
2015,10,15,01,03,11.70
2015,10,15,01,04,11.70
2015,10,15,01,05,11.60
2015,10,15,01,06,11.60
2015,10,15,01,07,11.50
2015,10,15,01,08,11.50
2015,10,15,01,09,11.50
2015,10,15,01,10,11.50
2015,10,15,01,11,11.50
2015,10,15,01,12,11.50
2015,10,15,01,13,11.50
2015,10,15,01,14,11.50
2015,10,15,01,15,11.60
2015,10,15,01,16,11.60
2015,10,15,01,17,11.70
2015,10,15,01,18,11.70
2015,10,15,01,19,11.80
2015,10,15,01,20,11.90
2015,10,15,01,21,12.00
2015,10,15,01,22,12.10
2015,10,15,01,23,12.20
2015,10,15,01,24,12.20
2015,10,15,01,25,12.20
2015,10,15,01,26,12.20
2015,10,15,01,27,12.20
2015,10,15,01,28,12.20
2015,10,15,01,29,12.10
2015,10,15,01,30,12.10
2015,10,15,01,31,12.10
2015,10,15,01,32,12.00
2015,10,15,01,33,12.00
2015,10,15,01,34,11.90
2015,10,15,01,35,11.90
2015,10,15,01,36,11.90
2015,10,15,01,37,11.80
2015,10,15,01,38,11.80
2015,10,15,01,39,11.80
2015,10,15,01,40,11.80
2015,10,15,01,41,11.80
2015,10,15,01,42,11.70
2015,10,15,01,43,11.70
2015,10,15,01,44,11.70
2015,10,15,01,45,11.80
2015,10,15,01,46,12.00
2015,10,15,01,47,12.20
2015,10,15,01,48,12.30
2015,10,15,01,49,12.50
2015,10,15,01,50,12.60
2015,10,15,01,51,12.80
2015,10,15,01,52,12.90
2015,10,15,01,53,12.90
2015,10,15,01,54,13.00
2015,10,15,01,55,13.10
2015,10,15,01,56,13.20
2015,10,15,01,57,13.20
2015,10,15,01,58,13.20
2015,10,15,01,59,13.10
2015,10,15,02,00,13.10
2015,10,15,02,01,13.20
2015,10,15,02,02,13.20
2015,10,15,02,03,13.20
2015,10,15,02,04,13.20
2015,10,15,02,05,13.10
2015,10,15,02,06,13.00
2015,10,15,02,07,13.00
2015,10,15,02,08,13.00
2015,10,15,02,09,13.00
2015,10,15,02,10,13.00
2015,10,15,02,11,13.00
2015,10,15,02,12,12.90
2015,10,15,02,13,12.70
2015,10,15,02,14,12.70
2015,10,15,02,15,12.70
2015,10,15,02,16,12.70
2015,10,15,02,17,12.70
2015,10,15,02,18,12.60
2015,10,15,02,19,12.60
2015,10,15,02,20,12.50
2015,10,15,02,21,12.50
2015,10,15,02,22,12.40
2015,10,15,02,23,12.40
2015,10,15,02,24,12.40
2015,10,15,02,25,12.20
2015,10,15,02,26,12.10
2015,10,15,02,27,12.10
2015,10,15,02,28,12.00
2015,10,15,02,29,12.00
2015,10,15,02,30,11.90
2015,10,15,02,31,11.80
2015,10,15,02,32,11.80
2015,10,15,02,33,11.70
2015,10,15,02,34,11.70
2015,10,15,02,35,11.70
2015,10,15,02,36,11.60
2015,10,15,02,37,11.60
2015,10,15,02,38,11.60
2015,10,15,02,39,11.70
2015,10,15,02,40,11.70
2015,10,15,02,41,11.80
2015,10,15,02,42,11.80
2015,10,15,02,43,11.90
2015,10,15,02,44,12.00
2015,10,15,02,45,12.00
2015,10,15,02,46,12.20
2015,10,15,02,47,12.30
2015,10,15,02,48,12.40
2015,10,15,02,49,12.50
2015,10,15,02,50,12.70
2015,10,15,02,51,12.70
2015,10,15,02,52,12.80
2015,10,15,02,53,12.80
2015,10,15,02,54,12.70
2015,10,15,02,55,12.70
2015,10,15,02,56,12.70
2015,10,15,02,57,12.70
2015,10,15,02,58,12.70
2015,10,15,02,59,12.80
2015,10,15,03,00,12.80
2015,10,15,03,01,12.80
2015,10,15,03,02,12.80
2015,10,15,03,03,12.80
2015,10,15,03,04,12.80
2015,10,15,03,05,12.80
2015,10,15,03,06,12.70
2015,10,15,03,07,12.60
2015,10,15,03,08,12.60
2015,10,15,03,09,12.60
2015,10,15,03,10,12.60
2015,10,15,03,11,12.60
2015,10,15,03,12,12.60
2015,10,15,03,13,12.50
2015,10,15,03,14,12.50
2015,10,15,03,15,12.40
2015,10,15,03,16,12.40
2015,10,15,03,17,12.40
2015,10,15,03,18,12.40
2015,10,15,03,19,12.30
2015,10,15,03,20,12.30
2015,10,15,03,21,12.30
2015,10,15,03,22,12.20
2015,10,15,03,23,12.10
2015,10,15,03,24,12.00
2015,10,15,03,25,11.90
2015,10,15,03,26,11.80
2015,10,15,03,27,11.70
2015,10,15,03,28,11.70
2015,10,15,03,29,11.60
2015,10,15,03,30,11.50
2015,10,15,03,31,11.50
2015,10,15,03,32,11.40
2015,10,15,03,33,11.40
2015,10,15,03,34,11.30
2015,10,15,03,35,11.20
2015,10,15,03,36,11.20
2015,10,15,03,37,11.10
2015,10,15,03,38,11.00
2015,10,15,03,39,11.00
2015,10,15,03,40,10.90
2015,10,15,03,41,10.90
2015,10,15,03,42,10.80
2015,10,15,03,43,10.80
2015,10,15,03,44,10.80
2015,10,15,03,45,10.80
2015,10,15,03,46,10.70
2015,10,15,03,47,10.70
2015,10,15,03,48,10.60
2015,10,15,03,49,10.60
2015,10,15,03,50,10.60
2015,10,15,03,51,10.50
2015,10,15,03,52,10.50
2015,10,15,03,53,10.40
2015,10,15,03,54,10.40
2015,10,15,03,55,10.40
2015,10,15,03,56,10.30
2015,10,15,03,57,10.30
2015,10,15,03,58,10.30
2015,10,15,03,59,10.30
2015,10,15,04,00,10.20
2015,10,15,04,01,10.20
2015,10,15,04,02,10.20
2015,10,15,04,03,10.20
2015,10,15,04,04,10.20
2015,10,15,04,05,10.20
2015,10,15,04,06,10.10
2015,10,15,04,07,10.10
2015,10,15,04,08,10.10
2015,10,15,04,09,10.10
2015,10,15,04,10,10.10
2015,10,15,04,11,10.10
2015,10,15,04,12,10.00
2015,10,15,04,13,10.00
2015,10,15,04,14,10.00
2015,10,15,04,15,10.00
2015,10,15,04,16,10.00
2015,10,15,04,17,10.00
2015,10,15,04,18,10.00
2015,10,15,04,19,10.00
2015,10,15,04,20,9.90
2015,10,15,04,21,9.90
2015,10,15,04,22,9.90
2015,10,15,04,23,9.90
2015,10,15,04,24,9.90
2015,10,15,04,25,9.90
2015,10,15,04,26,9.90
2015,10,15,04,27,9.80
2015,10,15,04,28,9.80
2015,10,15,04,29,9.90
2015,10,15,04,30,9.90
2015,10,15,04,31,9.90
2015,10,15,04,32,9.90
2015,10,15,04,33,9.90
2015,10,15,04,34,9.90
2015,10,15,04,35,9.90
2015,10,15,04,36,9.90
2015,10,15,04,37,9.90
2015,10,15,04,38,9.90
2015,10,15,04,39,9.90
2015,10,15,04,40,9.90
2015,10,15,04,41,10.00
2015,10,15,04,42,10.00
2015,10,15,04,43,10.00
2015,10,15,04,44,10.00
2015,10,15,04,45,10.00
2015,10,15,04,46,10.10
2015,10,15,04,47,10.10
2015,10,15,04,48,10.10
2015,10,15,04,49,10.10
2015,10,15,04,50,10.20
2015,10,15,04,51,10.20
2015,10,15,04,52,10.20
2015,10,15,04,53,10.10
2015,10,15,04,54,10.10
2015,10,15,04,55,10.10
2015,10,15,04,56,10.10
2015,10,15,04,57,10.10
2015,10,15,04,58,10.10
2015,10,15,04,59,10.10
2015,10,15,05,00,10.10
2015,10,15,05,01,10.20
2015,10,15,05,02,10.20
2015,10,15,05,03,10.20
2015,10,15,05,04,10.30
2015,10,15,05,05,10.50
2015,10,15,05,06,10.60
2015,10,15,05,07,10.60
2015,10,15,05,08,10.60
2015,10,15,05,09,10.60
2015,10,15,05,10,10.60
2015,10,15,05,11,10.50
2015,10,15,05,12,10.50
2015,10,15,05,13,10.40
2015,10,15,05,14,10.40
2015,10,15,05,15,10.30
2015,10,15,05,16,10.30
2015,10,15,05,17,10.30
2015,10,15,05,18,10.20
2015,10,15,05,19,10.20
2015,10,15,05,20,10.20
2015,10,15,05,21,10.20
2015,10,15,05,22,10.10
2015,10,15,05,23,10.00
2015,10,15,05,24,10.00
2015,10,15,05,25,9.90
2015,10,15,05,26,9.90
2015,10,15,05,27,9.80
2015,10,15,05,28,9.80
2015,10,15,05,29,9.70
2015,10,15,05,30,9.70
2015,10,15,05,31,9.70
2015,10,15,05,32,9.60
2015,10,15,05,33,9.60
2015,10,15,05,34,9.60
2015,10,15,05,35,9.50
2015,10,15,05,36,9.50
2015,10,15,05,37,9.40
2015,10,15,05,38,9.40
2015,10,15,05,39,9.40
2015,10,15,05,40,9.30
2015,10,15,05,41,9.30
2015,10,15,05,42,9.30
2015,10,15,05,43,9.40
2015,10,15,05,44,9.50
2015,10,15,05,45,9.60
2015,10,15,05,46,9.60
2015,10,15,05,47,9.60
2015,10,15,05,48,9.50
2015,10,15,05,49,9.50
2015,10,15,05,50,9.50
2015,10,15,05,51,9.50
2015,10,15,05,52,9.40
2015,10,15,05,53,9.40
2015,10,15,05,54,9.40
2015,10,15,05,55,9.30
2015,10,15,05,56,9.30
2015,10,15,05,57,9.30
2015,10,15,05,58,9.30
2015,10,15,05,59,9.30
2015,10,15,06,00,9.30
2015,10,15,06,01,9.30
2015,10,15,06,02,9.30
2015,10,15,06,03,9.30
2015,10,15,06,04,9.20
2015,10,15,06,05,9.20
2015,10,15,06,06,9.20
2015,10,15,06,07,9.20
2015,10,15,06,08,9.20
2015,10,15,06,09,9.10
2015,10,15,06,10,9.10
2015,10,15,06,11,9.10
2015,10,15,06,12,9.10
2015,10,15,06,13,9.10
2015,10,15,06,14,9.10
2015,10,15,06,15,9.10
2015,10,15,06,16,9.10
2015,10,15,06,17,9.10
2015,10,15,06,18,9.10
2015,10,15,06,19,9.10
2015,10,15,06,20,9.10
2015,10,15,06,21,9.10
2015,10,15,06,22,9.10
2015,10,15,06,23,9.10
2015,10,15,06,24,9.10
2015,10,15,06,25,9.10
2015,10,15,06,26,9.10
2015,10,15,06,27,9.10
2015,10,15,06,28,9.10
2015,10,15,06,29,9.10
2015,10,15,06,30,9.10
2015,10,15,06,31,9.10
2015,10,15,06,32,9.10
2015,10,15,06,33,9.10
2015,10,15,06,34,9.10
2015,10,15,06,35,9.10
2015,10,15,06,36,9.10
2015,10,15,06,37,9.00
2015,10,15,06,38,9.00
2015,10,15,06,39,9.00
2015,10,15,06,40,9.00
2015,10,15,06,41,9.00
2015,10,15,06,42,9.00
2015,10,15,06,43,8.90
2015,10,15,06,44,8.90
2015,10,15,06,45,8.90
2015,10,15,06,46,8.90
2015,10,15,06,47,8.90
2015,10,15,06,48,8.90
2015,10,15,06,49,8.80
2015,10,15,06,50,8.80
2015,10,15,06,51,8.80
2015,10,15,06,52,8.80
2015,10,15,06,53,8.80
2015,10,15,06,54,8.80
2015,10,15,06,55,8.80
2015,10,15,06,56,8.80
2015,10,15,06,57,8.80
2015,10,15,06,58,8.80
2015,10,15,06,59,8.80
2015,10,15,07,00,8.80
2015,10,15,07,01,8.80
2015,10,15,07,02,8.80
2015,10,15,07,03,8.90
2015,10,15,07,04,8.90
2015,10,15,07,05,8.90
2015,10,15,07,06,8.80
2015,10,15,07,07,8.80
2015,10,15,07,08,8.80
2015,10,15,07,09,8.80
2015,10,15,07,10,8.80
2015,10,15,07,11,8.80
2015,10,15,07,12,8.80
2015,10,15,07,13,8.80
2015,10,15,07,14,8.70
2015,10,15,07,15,8.70
2015,10,15,07,16,8.70
2015,10,15,07,17,8.70
2015,10,15,07,18,8.70
2015,10,15,07,19,8.70
2015,10,15,07,20,8.70
2015,10,15,07,21,8.70
2015,10,15,07,22,8.70
2015,10,15,07,23,8.70
2015,10,15,07,24,8.70
2015,10,15,07,25,8.70
2015,10,15,07,26,8.70
2015,10,15,07,27,8.70
2015,10,15,07,28,8.80
2015,10,15,07,29,8.80
2015,10,15,07,30,8.80
2015,10,15,07,31,8.80
2015,10,15,07,32,8.80
2015,10,15,07,33,8.80
2015,10,15,07,34,8.80
2015,10,15,07,35,8.80
2015,10,15,07,36,8.90
2015,10,15,07,37,8.90
2015,10,15,07,38,8.90
2015,10,15,07,39,8.90
2015,10,15,07,40,8.90
2015,10,15,07,41,8.90
2015,10,15,07,42,8.90
2015,10,15,07,43,8.90
2015,10,15,07,44,8.90
2015,10,15,07,45,8.90
2015,10,15,07,46,8.90
2015,10,15,07,47,8.90
2015,10,15,07,48,8.90
2015,10,15,07,49,8.90
2015,10,15,07,50,8.90
2015,10,15,07,51,9.00
2015,10,15,07,52,9.00
2015,10,15,07,53,9.00
2015,10,15,07,54,9.00
2015,10,15,07,55,9.00
2015,10,15,07,56,9.00
2015,10,15,07,57,9.00
2015,10,15,07,58,9.10
2015,10,15,07,59,9.10
2015,10,15,08,00,9.20
2015,10,15,08,01,9.20
2015,10,15,08,02,9.20
2015,10,15,08,03,9.20
2015,10,15,08,04,9.20
2015,10,15,08,05,9.20
2015,10,15,08,06,9.20
2015,10,15,08,07,9.20
2015,10,15,08,08,9.20
2015,10,15,08,09,9.20
2015,10,15,08,10,9.20
2015,10,15,08,11,9.20
2015,10,15,08,12,9.20
2015,10,15,08,13,9.20
2015,10,15,08,14,9.20
2015,10,15,08,15,9.30
2015,10,15,08,16,9.30
2015,10,15,08,17,9.30
2015,10,15,08,18,9.30
2015,10,15,08,19,9.40
2015,10,15,08,20,9.40
2015,10,15,08,21,9.50
2015,10,15,08,22,9.50
2015,10,15,08,23,9.50
2015,10,15,08,24,9.60
2015,10,15,08,25,9.60
2015,10,15,08,26,9.60
2015,10,15,08,27,9.70
2015,10,15,08,28,9.70
2015,10,15,08,29,9.80
2015,10,15,08,30,9.90
2015,10,15,08,31,10.00
2015,10,15,08,32,10.00
2015,10,15,08,33,10.10
2015,10,15,08,34,10.20
2015,10,15,08,35,10.20
2015,10,15,08,36,10.30
2015,10,15,08,37,10.30
2015,10,15,08,38,10.40
2015,10,15,08,39,10.40
2015,10,15,08,40,10.50
2015,10,15,08,41,10.60
2015,10,15,08,42,10.60
2015,10,15,08,43,10.70
2015,10,15,08,44,10.70
2015,10,15,08,45,10.80
2015,10,15,08,46,10.80
2015,10,15,08,47,10.90
2015,10,15,08,48,10.90
2015,10,15,08,49,11.00
2015,10,15,08,50,11.00
2015,10,15,08,51,11.10
2015,10,15,08,52,11.10
2015,10,15,08,53,11.10
2015,10,15,08,54,11.10
2015,10,15,08,55,11.20
2015,10,15,08,56,11.20
2015,10,15,08,57,11.20
2015,10,15,08,58,11.30
2015,10,15,08,59,11.30
2015,10,15,09,00,11.40
2015,10,15,09,01,11.40
2015,10,15,09,02,11.50
2015,10,15,09,03,11.60
2015,10,15,09,04,11.60
2015,10,15,09,05,11.70
2015,10,15,09,06,11.80
2015,10,15,09,07,11.90
2015,10,15,09,08,12.00
2015,10,15,09,09,12.10
2015,10,15,09,10,12.20
2015,10,15,09,11,12.20
2015,10,15,09,12,12.30
2015,10,15,09,13,12.40
2015,10,15,09,14,12.50
2015,10,15,09,15,12.60
2015,10,15,09,16,12.70
2015,10,15,09,17,12.80
2015,10,15,09,18,12.80
2015,10,15,09,19,12.90
2015,10,15,09,20,13.00
2015,10,15,09,21,13.00
2015,10,15,09,22,13.10
2015,10,15,09,23,13.10
2015,10,15,09,24,13.10
2015,10,15,09,25,13.20
2015,10,15,09,26,13.20
2015,10,15,09,27,13.20
2015,10,15,09,28,13.20
2015,10,15,09,29,13.20
2015,10,15,09,30,13.20
2015,10,15,09,31,13.20
2015,10,15,09,32,13.20
2015,10,15,09,33,13.20
2015,10,15,09,34,13.20
2015,10,15,09,35,13.20
2015,10,15,09,36,13.20
2015,10,15,09,37,13.20
2015,10,15,09,38,13.20
2015,10,15,09,39,13.20
2015,10,15,09,40,13.20
2015,10,15,09,41,13.30
2015,10,15,09,42,13.30
2015,10,15,09,43,13.40
2015,10,15,09,44,13.40
2015,10,15,09,45,13.50
2015,10,15,09,46,13.50
2015,10,15,09,47,13.60
2015,10,15,09,48,13.60
2015,10,15,09,49,13.70
2015,10,15,09,50,13.80
2015,10,15,09,51,14.00
2015,10,15,09,52,14.10
2015,10,15,09,53,14.30
2015,10,15,09,54,14.40
2015,10,15,09,55,14.50
2015,10,15,09,56,14.60
2015,10,15,09,57,14.70
2015,10,15,09,58,14.80
2015,10,15,09,59,14.80
2015,10,15,10,00,15.00
2015,10,15,10,01,15.00
2015,10,15,10,02,15.00
2015,10,15,10,03,15.00
2015,10,15,10,04,15.00
2015,10,15,10,05,15.00
2015,10,15,10,06,15.20
2015,10,15,10,07,15.30
2015,10,15,10,08,15.40
2015,10,15,10,09,15.50
2015,10,15,10,10,15.60
2015,10,15,10,11,15.60
2015,10,15,10,12,15.70
2015,10,15,10,13,15.70
2015,10,15,10,14,15.80
2015,10,15,10,15,15.90
2015,10,15,10,16,16.00
2015,10,15,10,17,16.10
2015,10,15,10,18,16.20
2015,10,15,10,19,16.20
2015,10,15,10,20,16.30
2015,10,15,10,21,16.40
2015,10,15,10,22,16.50
2015,10,15,10,23,16.60
2015,10,15,10,24,16.70
2015,10,15,10,25,16.80
2015,10,15,10,26,16.90
2015,10,15,10,27,17.00
2015,10,15,10,28,17.10
2015,10,15,10,29,17.10
2015,10,15,10,30,17.10
2015,10,15,10,31,17.20
2015,10,15,10,32,17.20
2015,10,15,10,33,17.20
2015,10,15,10,34,17.20
2015,10,15,10,35,17.20
2015,10,15,10,36,17.10
2015,10,15,10,37,17.10
2015,10,15,10,38,17.00
2015,10,15,10,39,17.00
2015,10,15,10,40,17.00
2015,10,15,10,41,17.00
2015,10,15,10,42,17.00
2015,10,15,10,43,17.10
2015,10,15,10,44,17.20
2015,10,15,10,45,17.20
2015,10,15,10,46,17.10
2015,10,15,10,47,17.10
2015,10,15,10,48,17.10
2015,10,15,10,49,17.10
2015,10,15,10,50,17.10
2015,10,15,10,51,17.10
2015,10,15,10,52,17.10
2015,10,15,10,53,17.10
2015,10,15,10,54,17.10
2015,10,15,10,55,17.10
2015,10,15,10,56,17.10
2015,10,15,10,57,17.20
2015,10,15,10,58,17.30
2015,10,15,10,59,17.40
2015,10,15,11,00,17.60
2015,10,15,11,01,17.70
2015,10,15,11,02,17.80
2015,10,15,11,03,17.90
2015,10,15,11,04,17.90
2015,10,15,11,05,17.90
2015,10,15,11,06,17.80
2015,10,15,11,07,17.80
2015,10,15,11,08,17.80
2015,10,15,11,09,17.80
2015,10,15,11,10,17.80
2015,10,15,11,11,17.80
2015,10,15,11,12,17.80
2015,10,15,11,13,17.80
2015,10,15,11,14,17.90
2015,10,15,11,15,17.90
2015,10,15,11,16,17.90
2015,10,15,11,17,17.80
2015,10,15,11,18,17.80
2015,10,15,11,19,17.90
2015,10,15,11,20,17.90
2015,10,15,11,21,17.80
2015,10,15,11,22,17.80
2015,10,15,11,23,17.80
2015,10,15,11,24,17.70
2015,10,15,11,25,17.60
2015,10,15,11,26,17.60
2015,10,15,11,27,17.50
2015,10,15,11,28,17.50
2015,10,15,11,29,17.40
2015,10,15,11,30,17.40
2015,10,15,11,31,17.40
2015,10,15,11,32,17.40
2015,10,15,11,33,17.40
2015,10,15,11,34,17.50
2015,10,15,11,35,17.50
2015,10,15,11,36,17.60
2015,10,15,11,37,17.70
2015,10,15,11,38,17.80
2015,10,15,11,39,17.90
2015,10,15,11,40,17.90
2015,10,15,11,41,17.90
2015,10,15,11,42,17.90
2015,10,15,11,43,17.90
2015,10,15,11,44,17.90
2015,10,15,11,45,17.90
2015,10,15,11,46,17.90
2015,10,15,11,47,18.00
2015,10,15,11,48,18.00
2015,10,15,11,49,18.10
2015,10,15,11,50,18.20
2015,10,15,11,51,18.20
2015,10,15,11,52,18.30
2015,10,15,11,53,18.40
2015,10,15,11,54,18.40
2015,10,15,11,55,18.40
2015,10,15,11,56,18.50
2015,10,15,11,57,18.50
2015,10,15,11,58,18.50
2015,10,15,11,59,18.50
2015,10,15,12,00,18.60
2015,10,15,12,01,18.60
2015,10,15,12,02,18.60
2015,10,15,12,03,18.60
2015,10,15,12,04,18.60
2015,10,15,12,05,18.70
2015,10,15,12,06,18.70
2015,10,15,12,07,18.70
2015,10,15,12,08,18.70
2015,10,15,12,09,18.70
2015,10,15,12,10,18.70
2015,10,15,12,11,18.70
2015,10,15,12,12,18.70
2015,10,15,12,13,18.70
2015,10,15,12,14,18.70
2015,10,15,12,15,18.70
2015,10,15,12,16,18.70
2015,10,15,12,17,18.70
2015,10,15,12,18,18.70
2015,10,15,12,19,18.70
2015,10,15,12,20,18.80
2015,10,15,12,21,18.80
2015,10,15,12,22,18.80
2015,10,15,12,23,18.90
2015,10,15,12,24,18.90
2015,10,15,12,25,18.90
2015,10,15,12,26,19.00
2015,10,15,12,27,19.10
2015,10,15,12,28,19.10
2015,10,15,12,29,19.10
2015,10,15,12,30,19.10
2015,10,15,12,31,19.00
2015,10,15,12,32,19.00
2015,10,15,12,33,18.90
2015,10,15,12,34,18.90
2015,10,15,12,35,18.80
2015,10,15,12,36,18.90
2015,10,15,12,37,18.90
2015,10,15,12,38,19.00
2015,10,15,12,39,18.90
2015,10,15,12,40,18.80
2015,10,15,12,41,18.60
2015,10,15,12,42,18.60
2015,10,15,12,43,18.60
2015,10,15,12,44,18.60
2015,10,15,12,45,18.60
2015,10,15,12,46,18.50
2015,10,15,12,47,18.40
2015,10,15,12,48,18.40
2015,10,15,12,49,18.40
2015,10,15,12,50,18.40
2015,10,15,12,51,18.30
2015,10,15,12,52,18.30
2015,10,15,12,53,18.30
2015,10,15,12,54,18.30
2015,10,15,12,55,18.20
2015,10,15,12,56,18.20
2015,10,15,12,57,18.20
2015,10,15,12,58,18.20
2015,10,15,12,59,18.30
2015,10,15,13,00,18.30
2015,10,15,13,01,18.40
2015,10,15,13,02,18.40
2015,10,15,13,03,18.40
2015,10,15,13,04,18.50
2015,10,15,13,05,18.50
2015,10,15,13,06,18.60
2015,10,15,13,07,18.70
2015,10,15,13,08,18.80
2015,10,15,13,09,18.80
2015,10,15,13,10,18.80
2015,10,15,13,11,18.70
2015,10,15,13,12,18.70
2015,10,15,13,13,18.70
2015,10,15,13,14,18.80
2015,10,15,13,15,18.80
2015,10,15,13,16,18.90
2015,10,15,13,17,19.00
2015,10,15,13,18,19.10
2015,10,15,13,19,19.20
2015,10,15,13,20,19.30
2015,10,15,13,21,19.30
2015,10,15,13,22,19.40
2015,10,15,13,23,19.40
2015,10,15,13,24,19.30
2015,10,15,13,25,19.30
2015,10,15,13,26,19.40
2015,10,15,13,27,19.40
2015,10,15,13,28,19.40
2015,10,15,13,29,19.40
2015,10,15,13,30,19.40
2015,10,15,13,31,19.40
2015,10,15,13,32,19.40
2015,10,15,13,33,19.40
2015,10,15,13,34,19.40
2015,10,15,13,35,19.40
2015,10,15,13,36,19.40
2015,10,15,13,37,19.30
2015,10,15,13,38,19.30
2015,10,15,13,39,19.30
2015,10,15,13,40,19.30
2015,10,15,13,41,19.30
2015,10,15,13,42,19.30
2015,10,15,13,43,19.30
2015,10,15,13,44,19.40
2015,10,15,13,45,19.40
2015,10,15,13,46,19.50
2015,10,15,13,47,19.60
2015,10,15,13,48,19.60
2015,10,15,13,49,19.50
2015,10,15,13,50,19.50
2015,10,15,13,51,19.40
2015,10,15,13,52,19.40
2015,10,15,13,53,19.30
2015,10,15,13,54,19.30
2015,10,15,13,55,19.30
2015,10,15,13,56,19.30
2015,10,15,13,57,19.30
2015,10,15,13,58,19.30
2015,10,15,13,59,19.30
2015,10,15,14,00,19.40
2015,10,15,14,01,19.40
2015,10,15,14,02,19.40
2015,10,15,14,03,19.40
2015,10,15,14,04,19.40
2015,10,15,14,05,19.50
2015,10,15,14,06,19.50
2015,10,15,14,07,19.60
2015,10,15,14,08,19.60
2015,10,15,14,09,19.70
2015,10,15,14,10,19.70
2015,10,15,14,11,19.70
2015,10,15,14,12,19.70
2015,10,15,14,13,19.70
2015,10,15,14,14,19.70
2015,10,15,14,15,19.70
2015,10,15,14,16,19.70
2015,10,15,14,17,19.70
2015,10,15,14,18,19.70
2015,10,15,14,19,19.70
2015,10,15,14,20,19.70
2015,10,15,14,21,19.80
2015,10,15,14,22,19.80
2015,10,15,14,23,19.80
2015,10,15,14,24,19.80
2015,10,15,14,25,19.80
2015,10,15,14,26,19.80
2015,10,15,14,27,19.70
2015,10,15,14,28,19.70
2015,10,15,14,29,19.70
2015,10,15,14,30,19.70
2015,10,15,14,31,19.70
2015,10,15,14,32,19.70
2015,10,15,14,33,19.70
2015,10,15,14,34,19.80
2015,10,15,14,35,19.80
2015,10,15,14,36,19.80
2015,10,15,14,37,19.90
2015,10,15,14,38,19.90
2015,10,15,14,39,19.90
2015,10,15,14,40,19.90
2015,10,15,14,41,19.90
2015,10,15,14,42,20.00
2015,10,15,14,43,19.90
2015,10,15,14,44,19.90
2015,10,15,14,45,19.90
2015,10,15,14,46,19.90
2015,10,15,14,47,19.90
2015,10,15,14,48,19.90
2015,10,15,14,49,19.90
2015,10,15,14,50,20.00
2015,10,15,14,51,20.00
2015,10,15,14,52,20.10
2015,10,15,14,53,20.10
2015,10,15,14,54,20.10
2015,10,15,14,55,20.10
2015,10,15,14,56,20.20
2015,10,15,14,57,20.10
2015,10,15,14,58,20.10
2015,10,15,14,59,20.00
2015,10,15,15,00,19.90
2015,10,15,15,01,19.80
2015,10,15,15,02,19.80
2015,10,15,15,03,19.80
2015,10,15,15,04,19.80
2015,10,15,15,05,19.90
2015,10,15,15,06,19.90
2015,10,15,15,07,19.90
2015,10,15,15,08,20.00
2015,10,15,15,09,20.00
2015,10,15,15,10,20.00
2015,10,15,15,11,20.00
2015,10,15,15,12,20.00
2015,10,15,15,13,20.00
2015,10,15,15,14,20.10
2015,10,15,15,15,20.10
2015,10,15,15,16,20.10
2015,10,15,15,17,20.10
2015,10,15,15,18,20.10
2015,10,15,15,19,20.10
2015,10,15,15,20,20.20
2015,10,15,15,21,20.20
2015,10,15,15,22,20.20
2015,10,15,15,23,20.20
2015,10,15,15,24,20.10
2015,10,15,15,25,20.10
2015,10,15,15,26,20.10
2015,10,15,15,27,20.10
2015,10,15,15,28,20.10
2015,10,15,15,29,20.10
2015,10,15,15,30,20.10
2015,10,15,15,31,20.10
2015,10,15,15,32,20.10
2015,10,15,15,33,20.10
2015,10,15,15,34,20.10
2015,10,15,15,35,20.10
2015,10,15,15,36,20.10
2015,10,15,15,37,20.10
2015,10,15,15,38,20.10
2015,10,15,15,39,20.00
2015,10,15,15,40,20.10
2015,10,15,15,41,20.10
2015,10,15,15,42,20.10
2015,10,15,15,43,20.10
2015,10,15,15,44,20.20
2015,10,15,15,45,20.20
2015,10,15,15,46,20.20
2015,10,15,15,47,20.20
2015,10,15,15,48,20.20
2015,10,15,15,49,20.20
2015,10,15,15,50,20.20
2015,10,15,15,51,20.20
2015,10,15,15,52,20.30
2015,10,15,15,53,20.30
2015,10,15,15,54,20.30
2015,10,15,15,55,20.30
2015,10,15,15,56,20.30
2015,10,15,15,57,20.30
2015,10,15,15,58,20.30
2015,10,15,15,59,20.30
2015,10,15,16,00,20.30
2015,10,15,16,01,20.30
2015,10,15,16,02,20.30
2015,10,15,16,03,20.30
2015,10,15,16,04,20.30
2015,10,15,16,05,20.20
2015,10,15,16,06,20.20
2015,10,15,16,07,20.10
2015,10,15,16,08,20.10
2015,10,15,16,09,20.10
2015,10,15,16,10,20.00
2015,10,15,16,11,20.00
2015,10,15,16,12,20.00
2015,10,15,16,13,20.00
2015,10,15,16,14,19.90
2015,10,15,16,15,19.90
2015,10,15,16,16,19.90
2015,10,15,16,17,19.90
2015,10,15,16,18,19.80
2015,10,15,16,19,19.80
2015,10,15,16,20,19.70
2015,10,15,16,21,19.70
2015,10,15,16,22,19.60
2015,10,15,16,23,19.60
2015,10,15,16,24,19.60
2015,10,15,16,25,19.50
2015,10,15,16,26,19.50
2015,10,15,16,27,19.50
2015,10,15,16,28,19.50
2015,10,15,16,29,19.40
2015,10,15,16,30,19.40
2015,10,15,16,31,19.40
2015,10,15,16,32,19.40
2015,10,15,16,33,19.40
2015,10,15,16,34,19.30
2015,10,15,16,35,19.30
2015,10,15,16,36,19.30
2015,10,15,16,37,19.30
2015,10,15,16,38,19.20
2015,10,15,16,39,19.20
2015,10,15,16,40,19.20
2015,10,15,16,41,19.20
2015,10,15,16,42,19.10
2015,10,15,16,43,19.10
2015,10,15,16,44,19.00
2015,10,15,16,45,19.00
2015,10,15,16,46,18.90
2015,10,15,16,47,18.80
2015,10,15,16,48,18.80
2015,10,15,16,49,18.70
2015,10,15,16,50,18.70
2015,10,15,16,51,18.60
2015,10,15,16,52,18.60
2015,10,15,16,53,18.60
2015,10,15,16,54,18.60
2015,10,15,16,55,18.50
2015,10,15,16,56,18.50
2015,10,15,16,57,18.40
2015,10,15,16,58,18.40
2015,10,15,16,59,18.40
2015,10,15,17,00,18.40
2015,10,15,17,01,18.40
2015,10,15,17,02,18.30
2015,10,15,17,03,18.30
2015,10,15,17,04,18.30
2015,10,15,17,05,18.30
2015,10,15,17,06,18.30
2015,10,15,17,07,18.20
2015,10,15,17,08,18.10
2015,10,15,17,09,18.00
2015,10,15,17,10,17.90
2015,10,15,17,11,17.90
2015,10,15,17,12,17.80
2015,10,15,17,13,17.80
2015,10,15,17,14,17.70
2015,10,15,17,15,17.70
2015,10,15,17,16,17.60
2015,10,15,17,17,17.60
2015,10,15,17,18,17.50
2015,10,15,17,19,17.40
2015,10,15,17,20,17.40
2015,10,15,17,21,17.30
2015,10,15,17,22,17.30
2015,10,15,17,23,17.20
2015,10,15,17,24,17.10
2015,10,15,17,25,17.10
2015,10,15,17,26,17.00
2015,10,15,17,27,17.00
2015,10,15,17,28,16.90